Time,TemperatureF,DewpointF,PressureIn,WindDirection,WindDirectionDegrees,WindSpeedMPH,WindSpeedGustMPH,Humidity,HourlyPrecipIn,Conditions,Clouds,dailyrainin,SoftwareType,DateUTC
2013-07-21 00:03:00,66.7,57.8,29.91,ESE,114,0.0,3.0,73,0.00,,,0.00,VWS V14.01,2013-07-21 05:03:00,
2013-07-21 00:08:00,66.7,57.4,29.91,SSE,147,0.0,1.0,72,0.00,,,0.00,VWS V14.01,2013-07-21 05:08:00,
2013-07-21 00:13:00,66.7,57.4,29.91,SSE,147,0.0,2.0,72,0.00,,,0.00,VWS V14.01,2013-07-21 05:13:00,
2013-07-21 00:18:00,66.7,57.4,29.90,SSE,147,0.0,2.0,72,0.00,,,0.00,VWS V14.01,2013-07-21 05:18:00,
2013-07-21 00:23:00,66.7,57.8,29.90,SSE,147,0.0,2.0,73,0.00,,,0.00,VWS V14.01,2013-07-21 05:23:00,
2013-07-21 00:28:00,66.7,57.4,29.90,SSE,147,0.0,2.0,72,0.00,,,0.00,VWS V14.01,2013-07-21 05:28:00,
2013-07-21 00:33:00,66.6,57.3,29.90,SSE,147,0.0,2.0,72,0.00,,,0.00,VWS V14.01,2013-07-21 05:33:00,
2013-07-21 00:38:00,66.5,57.6,29.90,SSE,147,0.0,0.0,73,0.00,,,0.00,VWS V14.01,2013-07-21 05:38:00,
2013-07-21 00:43:00,66.5,57.6,29.91,SSE,147,0.0,0.0,73,0.00,,,0.00,VWS V14.01,2013-07-21 05:43:00,
2013-07-21 00:48:00,66.4,57.5,29.91,SSE,147,0.0,0.0,73,0.00,,,0.00,VWS V14.01,2013-07-21 05:48:00,
2013-07-21 00:53:00,66.3,57.8,29.90,ESE,103,0.0,2.0,74,0.00,,,0.00,VWS V14.01,2013-07-21 05:53:00,
2013-07-21 00:59:00,66.2,57.7,29.90,ESE,122,0.0,2.0,74,0.00,,,0.00,VWS V14.01,2013-07-21 05:59:00,
2013-07-21 01:04:00,66.1,57.2,29.90,ESE,122,0.0,2.0,73,0.00,,,0.00,VWS V14.01,2013-07-21 06:04:00,
2013-07-21 01:09:00,66.1,57.2,29.90,SE,131,0.0,2.0,73,0.00,,,0.00,VWS V14.01,2013-07-21 06:09:00,
2013-07-21 01:14:00,66.0,57.1,29.90,SE,133,1.0,3.0,73,0.00,,,0.00,VWS V14.01,2013-07-21 06:14:00,
2013-07-21 01:19:00,66.1,57.6,29.90,SE,133,0.0,3.0,74,0.00,,,0.00,VWS V14.01,2013-07-21 06:19:00,
2013-07-21 01:24:00,66.0,57.1,29.90,SE,127,4.0,4.0,73,0.00,,,0.00,VWS V14.01,2013-07-21 06:24:00,
2013-07-21 01:29:00,66.0,57.1,29.90,ESE,120,0.0,4.0,73,0.00,,,0.00,VWS V14.01,2013-07-21 06:29:00,
2013-07-21 01:34:00,66.1,57.2,29.90,SE,137,0.0,0.0,73,0.00,,,0.00,VWS V14.01,2013-07-21 06:34:00,
2013-07-21 01:39:00,66.1,57.2,29.89,SE,127,0.0,4.0,73,0.00,,,0.00,VWS V14.01,2013-07-21 06:39:00,
2013-07-21 01:44:00,66.1,57.2,29.89,SSE,153,1.0,5.0,73,0.00,,,0.00,VWS V14.01,2013-07-21 06:44:00,
2013-07-21 01:50:00,66.2,56.9,29.89,ESE,122,1.0,5.0,72,0.00,,,0.00,VWS V14.01,2013-07-21 06:50:00,
2013-07-21 01:55:00,66.3,56.6,29.89,East,93,0.0,5.0,71,0.00,,,0.00,VWS V14.01,2013-07-21 06:55:00,
2013-07-21 02:00:00,66.4,57.1,29.89,ESE,106,0.0,5.0,72,0.00,,,0.00,VWS V14.01,2013-07-21 07:00:00,
2013-07-21 02:05:00,66.4,57.5,29.89,ESE,106,0.0,0.0,73,0.00,,,0.00,VWS V14.01,2013-07-21 07:05:00,
2013-07-21 02:10:00,66.3,57.4,29.89,ESE,113,0.0,3.0,73,0.00,,,0.00,VWS V14.01,2013-07-21 07:10:00,
2013-07-21 02:15:00,66.2,57.7,29.89,SE,135,2.0,3.0,74,0.00,,,0.00,VWS V14.01,2013-07-21 07:15:00,
2013-07-21 02:20:00,66.1,57.2,29.89,SE,135,0.0,3.0,73,0.00,,,0.00,VWS V14.01,2013-07-21 07:20:00,
2013-07-21 02:25:00,66.0,57.1,29.88,ESE,106,3.0,6.0,73,0.00,,,0.00,VWS V14.01,2013-07-21 07:25:00,
2013-07-21 02:30:00,66.0,57.1,29.88,SE,136,3.0,6.0,73,0.00,,,0.00,VWS V14.01,2013-07-21 07:30:00,
2013-07-21 02:35:00,65.9,56.6,29.88,ESE,102,0.0,3.0,72,0.00,,,0.00,VWS V14.01,2013-07-21 07:35:00,
2013-07-21 02:40:00,65.9,56.6,29.88,East,100,1.0,5.0,72,0.00,,,0.00,VWS V14.01,2013-07-21 07:40:00,
2013-07-21 02:46:00,65.9,56.6,29.88,SE,141,1.0,5.0,72,0.00,,,0.00,VWS V14.01,2013-07-21 07:46:00,
2013-07-21 02:51:00,65.8,56.9,29.88,SE,144,0.0,5.0,73,0.00,,,0.00,VWS V14.01,2013-07-21 07:51:00,
2013-07-21 02:56:00,65.8,56.5,29.88,ESE,120,1.0,5.0,72,0.00,,,0.00,VWS V14.01,2013-07-21 07:56:00,
2013-07-21 03:01:00,65.8,56.5,29.88,ESE,120,2.0,5.0,72,0.00,,,0.00,VWS V14.01,2013-07-21 08:01:00,
2013-07-21 03:06:00,65.7,56.4,29.88,ESE,122,0.0,6.0,72,0.00,,,0.00,VWS V14.01,2013-07-21 08:06:00,
2013-07-21 03:11:00,65.7,56.8,29.88,WNW,297,0.0,6.0,73,0.00,,,0.00,VWS V14.01,2013-07-21 08:11:00,
2013-07-21 03:16:00,65.7,55.7,29.88,SSE,155,2.0,7.0,70,0.00,,,0.00,VWS V14.01,2013-07-21 08:16:00,
2013-07-21 03:21:00,65.6,55.6,29.88,NNE,21,1.0,9.0,70,0.00,,,0.00,VWS V14.01,2013-07-21 08:21:00,
2013-07-21 03:26:00,65.6,55.2,29.88,South,170,2.0,9.0,69,0.00,,,0.00,VWS V14.01,2013-07-21 08:26:00,
2013-07-21 03:31:00,65.5,55.1,29.88,ESE,123,1.0,9.0,69,0.00,,,0.00,VWS V14.01,2013-07-21 08:31:00,
2013-07-21 03:37:00,65.5,55.1,29.87,ESE,123,0.0,5.0,69,0.00,,,0.00,VWS V14.01,2013-07-21 08:37:00,
2013-07-21 03:42:00,65.4,55.4,29.87,SE,129,2.0,5.0,70,0.00,,,0.00,VWS V14.01,2013-07-21 08:42:00,
2013-07-21 03:47:00,65.3,54.1,29.87,SE,125,1.0,6.0,67,0.00,,,0.00,VWS V14.01,2013-07-21 08:47:00,
2013-07-21 03:52:00,65.2,53.6,29.87,SE,137,3.0,6.0,66,0.00,,,0.00,VWS V14.01,2013-07-21 08:52:00,
2013-07-21 03:57:00,65.0,53.4,29.87,SE,136,3.0,6.0,66,0.00,,,0.00,VWS V14.01,2013-07-21 08:57:00,
2013-07-21 04:02:00,64.9,53.3,29.87,SE,133,0.0,6.0,66,0.00,,,0.00,VWS V14.01,2013-07-21 09:02:00,
2013-07-21 04:07:00,64.7,52.7,29.87,ESE,121,3.0,7.0,65,0.00,,,0.00,VWS V14.01,2013-07-21 09:07:00,
2013-07-21 04:12:00,64.6,52.6,29.87,ESE,110,0.0,7.0,65,0.00,,,0.00,VWS V14.01,2013-07-21 09:12:00,
2013-07-21 04:17:00,64.5,52.5,29.87,SE,143,1.0,7.0,65,0.00,,,0.00,VWS V14.01,2013-07-21 09:17:00,
2013-07-21 04:23:00,64.3,52.3,29.87,SE,142,0.0,7.0,65,0.00,,,0.00,VWS V14.01,2013-07-21 09:23:00,
2013-07-21 04:28:00,64.3,53.1,29.86,SE,142,0.0,7.0,67,0.00,,,0.00,VWS V14.01,2013-07-21 09:28:00,
2013-07-21 04:33:00,64.1,53.3,29.86,East,99,3.0,7.0,68,0.00,,,0.00,VWS V14.01,2013-07-21 09:33:00,
2013-07-21 04:38:00,64.0,52.8,29.86,NNE,22,2.0,2.0,67,0.00,,,0.00,VWS V14.01,2013-07-21 09:38:00,
2013-07-21 04:43:00,64.0,53.2,29.85,ESE,105,1.0,4.0,68,0.00,,,0.00,VWS V14.01,2013-07-21 09:43:00,
2013-07-21 04:48:00,63.9,52.3,29.86,East,97,0.0,4.0,66,0.00,,,0.00,VWS V14.01,2013-07-21 09:48:00,
2013-07-21 04:53:00,63.8,51.8,29.86,SE,141,1.0,4.0,65,0.00,,,0.00,VWS V14.01,2013-07-21 09:53:00,
2013-07-21 04:58:00,63.8,52.2,29.86,ENE,75,0.0,4.0,66,0.00,,,0.00,VWS V14.01,2013-07-21 09:58:00,
2013-07-21 05:03:00,63.7,52.1,29.86,SE,144,3.0,4.0,66,0.00,,,0.00,VWS V14.01,2013-07-21 10:03:00,
2013-07-21 05:09:00,63.6,51.6,29.87,SE,143,0.0,2.0,65,0.00,,,0.00,VWS V14.01,2013-07-21 10:09:00,
2013-07-21 05:14:00,63.6,51.6,29.87,SE,127,1.0,4.0,65,0.00,,,0.00,VWS V14.01,2013-07-21 10:14:00,
2013-07-21 05:19:00,63.5,51.1,29.87,ESE,114,2.0,4.0,64,0.00,,,0.00,VWS V14.01,2013-07-21 10:19:00,
2013-07-21 05:24:00,63.6,52.0,29.87,ESE,114,0.0,4.0,66,0.00,,,0.00,VWS V14.01,2013-07-21 10:24:00,
2013-07-21 05:29:00,63.5,52.0,29.87,ESE,114,0.0,4.0,66,0.00,,,0.00,VWS V14.01,2013-07-21 10:29:00,
2013-07-21 05:34:00,63.5,51.5,29.87,ESE,117,0.0,0.0,65,0.00,,,0.00,VWS V14.01,2013-07-21 10:34:00,
2013-07-21 05:39:00,63.4,51.9,29.87,SE,141,0.0,2.0,66,0.00,,,0.00,VWS V14.01,2013-07-21 10:39:00,
2013-07-21 05:44:00,63.4,52.3,29.87,SE,141,0.0,2.0,67,0.00,,,0.00,VWS V14.01,2013-07-21 10:44:00,
2013-07-21 05:49:00,63.4,52.3,29.87,SE,141,0.0,2.0,67,0.00,,,0.00,VWS V14.01,2013-07-21 10:49:00,
2013-07-21 05:54:00,63.4,52.3,29.87,ESE,116,0.0,2.0,67,0.00,,,0.00,VWS V14.01,2013-07-21 10:54:00,
2013-07-21 06:00:00,63.3,51.8,29.87,SE,129,0.0,2.0,66,0.00,,,0.00,VWS V14.01,2013-07-21 11:00:00,
2013-07-21 06:05:00,63.4,51.4,29.87,ESE,110,1.0,3.0,65,0.00,,,0.00,VWS V14.01,2013-07-21 11:05:00,
2013-07-21 06:10:00,63.4,51.4,29.87,SE,130,1.0,3.0,65,0.00,,,0.00,VWS V14.01,2013-07-21 11:10:00,
2013-07-21 06:15:00,63.5,52.0,29.88,SSE,160,2.0,5.0,66,0.00,,,0.00,VWS V14.01,2013-07-21 11:15:00,
2013-07-21 06:20:00,63.4,51.9,29.88,East,86,1.0,5.0,66,0.00,,,0.00,VWS V14.01,2013-07-21 11:20:00,
2013-07-21 06:25:00,63.4,51.4,29.88,NE,50,2.0,5.0,65,0.00,,,0.00,VWS V14.01,2013-07-21 11:25:00,
2013-07-21 06:30:00,63.4,52.3,29.88,SE,139,2.0,5.0,67,0.00,,,0.00,VWS V14.01,2013-07-21 11:30:00,
2013-07-21 06:35:00,63.4,52.3,29.88,SE,130,0.0,0.0,67,0.00,,,0.00,VWS V14.01,2013-07-21 11:35:00,
2013-07-21 06:40:00,63.3,51.3,29.88,East,97,0.0,4.0,65,0.00,,,0.00,VWS V14.01,2013-07-21 11:40:00,
2013-07-21 06:45:00,63.3,52.2,29.87,WSW,237,1.0,4.0,67,0.00,,,0.00,VWS V14.01,2013-07-21 11:45:00,
2013-07-21 06:51:00,63.3,52.6,29.88,SSW,206,0.0,4.0,68,0.00,,,0.00,VWS V14.01,2013-07-21 11:51:00,
2013-07-21 06:56:00,63.3,52.6,29.88,West,271,0.0,4.0,68,0.00,,,0.00,VWS V14.01,2013-07-21 11:56:00,
2013-07-21 07:01:00,63.3,53.0,29.88,SSE,152,0.0,4.0,69,0.00,,,0.00,VWS V14.01,2013-07-21 12:01:00,
2013-07-21 07:06:00,63.2,52.9,29.88,SSE,163,0.0,1.0,69,0.00,,,0.00,VWS V14.01,2013-07-21 12:06:00,
2013-07-21 07:11:00,63.2,53.3,29.88,SSE,162,0.0,1.0,70,0.00,,,0.00,VWS V14.01,2013-07-21 12:11:00,
2013-07-21 07:16:00,63.1,52.4,29.88,SSE,163,1.0,1.0,68,0.00,,,0.00,VWS V14.01,2013-07-21 12:16:00,
2013-07-21 07:21:00,63.1,52.8,29.88,North,354,1.0,2.0,69,0.00,,,0.00,VWS V14.01,2013-07-21 12:21:00,
2013-07-21 07:26:00,63.0,52.7,29.88,ENE,64,0.0,4.0,69,0.00,,,0.00,VWS V14.01,2013-07-21 12:26:00,
2013-07-21 07:31:00,63.0,53.8,29.88,NNW,336,0.0,4.0,72,0.00,,,0.00,VWS V14.01,2013-07-21 12:31:00,
2013-07-21 07:37:00,62.9,53.4,29.88,NNW,337,0.0,1.0,71,0.00,,,0.00,VWS V14.01,2013-07-21 12:37:00,
2013-07-21 07:42:00,62.7,53.5,29.88,NNW,340,0.0,1.0,72,0.00,,,0.00,VWS V14.01,2013-07-21 12:42:00,
2013-07-21 07:47:00,62.6,54.9,29.90,WSW,245,0.0,3.0,76,0.00,,,0.00,VWS V14.01,2013-07-21 12:47:00,
2013-07-21 07:52:00,62.1,55.9,29.89,WSW,245,0.0,3.0,80,0.01,,,0.01,VWS V14.01,2013-07-21 12:52:00,
2013-07-21 07:57:00,61.3,56.1,29.88,NNW,332,0.0,3.0,83,0.06,,,0.06,VWS V14.01,2013-07-21 12:57:00,
2013-07-21 08:02:00,60.5,55.7,29.88,SE,145,0.0,3.0,84,0.08,,,0.08,VWS V14.01,2013-07-21 13:02:00,
2013-07-21 08:07:00,59.9,55.4,29.90,WSW,247,2.0,2.0,85,0.08,,,0.08,VWS V14.01,2013-07-21 13:07:00,
2013-07-21 08:12:00,59.5,55.6,29.92,West,275,1.0,6.0,87,0.09,,,0.09,VWS V14.01,2013-07-21 13:12:00,
2013-07-21 08:17:00,59.1,55.2,29.90,SW,229,0.0,6.0,87,0.16,,,0.16,VWS V14.01,2013-07-21 13:17:00,
2013-07-21 08:22:00,58.7,55.2,29.91,SW,231,0.0,6.0,88,0.28,,,0.28,VWS V14.01,2013-07-21 13:22:00,
2013-07-21 08:27:00,58.6,54.8,29.92,WNW,301,0.0,6.0,87,0.36,,,0.36,VWS V14.01,2013-07-21 13:27:00,
2013-07-21 08:33:00,58.2,54.4,29.90,WNW,301,0.0,6.0,87,0.40,,,0.40,VWS V14.01,2013-07-21 13:33:00,
2013-07-21 08:38:00,58.2,54.4,29.90,WNW,300,0.0,6.0,87,0.40,,,0.40,VWS V14.01,2013-07-21 13:38:00,
2013-07-21 08:43:00,57.8,54.0,29.90,ESE,105,0.0,1.0,87,0.46,,,0.46,VWS V14.01,2013-07-21 13:43:00,
2013-07-21 08:48:00,57.7,53.9,29.89,ESE,105,0.0,1.0,87,0.47,,,0.47,VWS V14.01,2013-07-21 13:48:00,
2013-07-21 08:53:00,57.6,53.5,29.88,ESE,104,0.0,1.0,86,0.47,,,0.47,VWS V14.01,2013-07-21 13:53:00,
2013-07-21 08:58:00,57.6,53.5,29.89,SSE,159,0.0,2.0,86,0.47,,,0.47,VWS V14.01,2013-07-21 13:58:00,
2013-07-21 09:03:00,57.7,53.2,29.89,SSE,159,0.0,2.0,85,0.47,,,0.47,VWS V14.01,2013-07-21 14:03:00,
2013-07-21 09:08:00,57.7,53.2,29.88,SE,124,0.0,3.0,85,0.39,,,0.47,VWS V14.01,2013-07-21 14:08:00,
2013-07-21 09:13:00,57.7,53.2,29.88,ESE,122,1.0,3.0,85,0.40,,,0.48,VWS V14.01,2013-07-21 14:13:00,
2013-07-21 09:18:00,57.8,53.3,29.87,WSW,245,0.0,3.0,85,0.40,,,0.48,VWS V14.01,2013-07-21 14:18:00,
2013-07-21 09:24:00,58.0,53.2,29.87,South,179,0.0,3.0,84,0.40,,,0.48,VWS V14.01,2013-07-21 14:24:00,
2013-07-21 09:29:00,58.8,53.3,29.87,ESE,104,0.0,5.0,82,0.40,,,0.48,VWS V14.01,2013-07-21 14:29:00,
2013-07-21 09:34:00,59.9,54.7,29.88,SE,127,0.0,5.0,83,0.40,,,0.48,VWS V14.01,2013-07-21 14:34:00,
2013-07-21 09:39:00,60.4,55.2,29.88,SE,130,0.0,5.0,83,0.08,,,0.48,VWS V14.01,2013-07-21 14:39:00,
2013-07-21 09:44:00,60.5,55.3,29.88,SE,141,0.0,5.0,83,0.08,,,0.48,VWS V14.01,2013-07-21 14:44:00,
2013-07-21 09:49:00,60.6,55.8,29.88,SSW,202,0.0,5.0,84,0.08,,,0.48,VWS V14.01,2013-07-21 14:49:00,
2013-07-21 09:54:00,60.8,55.9,29.88,NE,39,1.0,5.0,84,0.08,,,0.48,VWS V14.01,2013-07-21 14:54:00,
2013-07-21 09:59:00,61.0,56.1,29.88,North,359,0.0,5.0,84,0.08,,,0.48,VWS V14.01,2013-07-21 14:59:00,
2013-07-21 10:04:00,61.2,56.3,29.88,SSE,151,0.0,0.0,84,0.01,,,0.48,VWS V14.01,2013-07-21 15:04:00,
2013-07-21 10:09:00,61.4,56.5,29.88,SSE,148,1.0,3.0,84,0.01,,,0.48,VWS V14.01,2013-07-21 15:09:00,
2013-07-21 10:14:00,61.6,56.7,29.88,East,99,2.0,4.0,84,0.01,,,0.48,VWS V14.01,2013-07-21 15:14:00,
2013-07-21 10:20:00,61.9,56.7,29.88,ESE,110,0.0,5.0,83,0.01,,,0.48,VWS V14.01,2013-07-21 15:20:00,
2013-07-21 10:25:00,62.2,57.0,29.88,North,8,1.0,5.0,83,0.01,,,0.48,VWS V14.01,2013-07-21 15:25:00,
2013-07-21 10:30:00,62.3,57.7,29.88,SE,130,0.0,5.0,85,0.01,,,0.48,VWS V14.01,2013-07-21 15:30:00,
2013-07-21 10:35:00,62.4,57.8,29.88,SE,140,0.0,1.0,85,0.00,,,0.48,VWS V14.01,2013-07-21 15:35:00,
2013-07-21 10:40:00,62.5,57.9,29.88,South,179,0.0,5.0,85,0.00,,,0.48,VWS V14.01,2013-07-21 15:40:00,
2013-07-21 10:45:00,62.7,58.1,29.88,SSE,161,0.0,5.0,85,0.00,,,0.48,VWS V14.01,2013-07-21 15:45:00,
2013-07-21 10:50:00,62.9,58.0,29.88,SSE,167,0.0,5.0,84,0.00,,,0.48,VWS V14.01,2013-07-21 15:50:00,
2013-07-21 10:55:00,63.1,58.5,29.88,SE,132,0.0,5.0,85,0.00,,,0.48,VWS V14.01,2013-07-21 15:55:00,
2013-07-21 11:00:00,63.5,58.6,29.88,SE,128,1.0,5.0,84,0.00,,,0.48,VWS V14.01,2013-07-21 16:00:00,
2013-07-21 11:06:00,63.8,59.2,29.88,SE,127,2.0,7.0,85,0.00,,,0.48,VWS V14.01,2013-07-21 16:06:00,
2013-07-21 11:11:00,64.1,59.8,29.88,West,270,1.0,7.0,86,0.00,,,0.48,VWS V14.01,2013-07-21 16:11:00,
2013-07-21 11:16:00,64.5,59.6,29.88,SSE,160,0.0,7.0,84,0.00,,,0.48,VWS V14.01,2013-07-21 16:16:00,
2013-07-21 11:21:00,65.1,60.2,29.88,ESE,104,2.0,7.0,84,0.00,,,0.48,VWS V14.01,2013-07-21 16:21:00,
2013-07-21 11:26:00,65.7,62.0,29.88,SE,136,5.0,8.0,88,0.00,,,0.48,VWS V14.01,2013-07-21 16:26:00,
2013-07-21 11:31:00,66.0,62.3,29.88,SE,141,1.0,8.0,88,0.00,,,0.48,VWS V14.01,2013-07-21 16:31:00,
2013-07-21 11:36:00,66.7,62.4,29.88,SE,133,0.0,1.0,86,0.00,,,0.48,VWS V14.01,2013-07-21 16:36:00,
2013-07-21 11:41:00,67.4,63.4,29.88,SSW,210,0.0,3.0,87,0.00,,,0.48,VWS V14.01,2013-07-21 16:41:00,
2013-07-21 11:46:00,68.0,64.3,29.88,SE,125,1.0,5.0,88,0.00,,,0.48,VWS V14.01,2013-07-21 16:46:00,
2013-07-21 11:52:00,68.6,64.6,29.88,ESE,110,1.0,6.0,87,0.00,,,0.48,VWS V14.01,2013-07-21 16:52:00,
2013-07-21 11:57:00,69.2,65.2,29.88,NE,39,0.0,6.0,87,0.00,,,0.48,VWS V14.01,2013-07-21 16:57:00,
2013-07-21 12:02:00,69.7,65.7,29.88,NNW,327,2.0,6.0,87,0.00,,,0.48,VWS V14.01,2013-07-21 17:02:00,
2013-07-21 12:07:00,70.2,66.2,29.88,ESE,115,1.0,5.0,87,0.00,,,0.48,VWS V14.01,2013-07-21 17:07:00,
2013-07-21 12:12:00,70.6,66.2,29.87,SE,135,1.0,5.0,86,0.00,,,0.48,VWS V14.01,2013-07-21 17:12:00,
2013-07-21 12:17:00,70.9,66.2,29.87,ENE,70,1.0,5.0,85,0.00,,,0.48,VWS V14.01,2013-07-21 17:17:00,
2013-07-21 12:22:00,71.3,66.2,29.86,ESE,113,2.0,7.0,84,0.00,,,0.48,VWS V14.01,2013-07-21 17:22:00,
2013-07-21 12:27:00,71.8,66.4,29.86,SE,131,2.0,7.0,83,0.00,,,0.48,VWS V14.01,2013-07-21 17:27:00,
2013-07-21 12:32:00,72.1,65.9,29.86,SE,136,4.0,8.0,81,0.00,,,0.48,VWS V14.01,2013-07-21 17:32:00,
2013-07-21 12:37:00,72.2,66.8,29.86,ESE,104,1.0,7.0,83,0.00,,,0.48,VWS V14.01,2013-07-21 17:37:00,
2013-07-21 12:43:00,72.5,67.7,29.86,ESE,114,1.0,7.0,85,0.00,,,0.48,VWS V14.01,2013-07-21 17:43:00,
2013-07-21 12:48:00,72.8,67.7,29.86,SE,132,0.0,7.0,84,0.00,,,0.48,VWS V14.01,2013-07-21 17:48:00,
2013-07-21 12:53:00,73.1,67.6,29.85,SE,137,4.0,7.0,83,0.00,,,0.48,VWS V14.01,2013-07-21 17:53:00,
2013-07-21 12:58:00,73.5,68.4,29.85,ESE,123,1.0,7.0,84,0.00,,,0.48,VWS V14.01,2013-07-21 17:58:00,
2013-07-21 13:03:00,73.7,67.5,29.85,SSE,165,2.0,8.0,81,0.00,,,0.48,VWS V14.01,2013-07-21 18:03:00,
2013-07-21 13:08:00,73.9,67.3,29.85,SE,139,5.0,9.0,80,0.00,,,0.48,VWS V14.01,2013-07-21 18:08:00,
2013-07-21 13:13:00,74.2,68.4,29.85,East,97,2.0,9.0,82,0.00,,,0.48,VWS V14.01,2013-07-21 18:13:00,
2013-07-21 13:18:00,74.6,68.4,29.84,SE,127,3.0,9.0,81,0.00,,,0.48,VWS V14.01,2013-07-21 18:18:00,
2013-07-21 13:23:00,75.0,66.9,29.84,South,169,0.0,9.0,76,0.00,,,0.48,VWS V14.01,2013-07-21 18:23:00,
2013-07-21 13:28:00,75.1,67.0,29.84,SE,133,1.0,9.0,76,0.00,,,0.48,VWS V14.01,2013-07-21 18:28:00,
2013-07-21 13:34:00,75.3,66.8,29.84,East,101,4.0,9.0,75,0.00,,,0.48,VWS V14.01,2013-07-21 18:34:00,
2013-07-21 13:39:00,75.4,67.3,29.84,SE,144,4.0,7.0,76,0.00,,,0.48,VWS V14.01,2013-07-21 18:39:00,
2013-07-21 13:44:00,75.5,67.0,29.83,ESE,111,4.0,9.0,75,0.00,,,0.48,VWS V14.01,2013-07-21 18:44:00,
2013-07-21 13:49:00,75.7,66.4,29.83,SSE,147,3.0,9.0,73,0.00,,,0.48,VWS V14.01,2013-07-21 18:49:00,
2013-07-21 13:54:00,75.7,66.8,29.84,SE,145,1.0,9.0,74,0.00,,,0.48,VWS V14.01,2013-07-21 18:54:00,
2013-07-21 13:59:00,75.9,67.4,29.83,SE,125,2.0,9.0,75,0.00,,,0.48,VWS V14.01,2013-07-21 18:59:00,
2013-07-21 14:04:00,76.3,67.8,29.83,SW,222,3.0,9.0,75,0.00,,,0.48,VWS V14.01,2013-07-21 19:04:00,
2013-07-21 14:09:00,76.6,66.9,29.83,ESE,113,1.0,6.0,72,0.00,,,0.48,VWS V14.01,2013-07-21 19:09:00,
2013-07-21 14:14:00,76.7,65.3,29.83,SSE,153,6.0,9.0,68,0.00,,,0.48,VWS V14.01,2013-07-21 19:14:00,
2013-07-21 14:19:00,76.8,66.3,29.83,ESE,112,1.0,9.0,70,0.00,,,0.48,VWS V14.01,2013-07-21 19:19:00,
2013-07-21 14:24:00,76.7,66.2,29.83,SE,142,4.0,9.0,70,0.00,,,0.48,VWS V14.01,2013-07-21 19:24:00,
2013-07-21 14:29:00,76.7,67.0,29.83,ESE,120,5.0,9.0,72,0.00,,,0.48,VWS V14.01,2013-07-21 19:29:00,
2013-07-21 14:34:00,76.9,66.4,29.83,ESE,109,5.0,6.0,70,0.00,,,0.48,VWS V14.01,2013-07-21 19:34:00,
2013-07-21 14:40:00,77.1,66.2,29.82,ESE,119,3.0,10.0,69,0.00,,,0.48,VWS V14.01,2013-07-21 19:40:00,
2013-07-21 14:45:00,77.3,66.3,29.82,ESE,120,3.0,10.0,69,0.00,,,0.48,VWS V14.01,2013-07-21 19:45:00,
2013-07-21 14:50:00,77.7,66.7,29.82,ESE,116,1.0,10.0,69,0.00,,,0.48,VWS V14.01,2013-07-21 19:50:00,
2013-07-21 14:55:00,77.9,66.5,29.82,WSW,253,4.0,10.0,68,0.00,,,0.48,VWS V14.01,2013-07-21 19:55:00,
2013-07-21 15:00:00,78.1,67.5,29.82,ESE,112,1.0,10.0,70,0.00,,,0.48,VWS V14.01,2013-07-21 20:00:00,
2013-07-21 15:05:00,78.4,66.6,29.82,SE,140,1.0,4.0,67,0.00,,,0.48,VWS V14.01,2013-07-21 20:05:00,
2013-07-21 15:10:00,78.6,67.6,29.82,SE,138,2.0,8.0,69,0.00,,,0.48,VWS V14.01,2013-07-21 20:10:00,
2013-07-21 15:15:00,78.7,66.8,29.82,SE,131,3.0,8.0,67,0.00,,,0.48,VWS V14.01,2013-07-21 20:15:00,
2013-07-21 15:20:00,78.8,66.9,29.81,SE,133,4.0,8.0,67,0.00,,,0.48,VWS V14.01,2013-07-21 20:20:00,
2013-07-21 15:26:00,79.0,66.7,29.81,ESE,116,3.0,8.0,66,0.00,,,0.48,VWS V14.01,2013-07-21 20:26:00,
2013-07-21 15:31:00,79.1,67.2,29.81,ESE,123,2.0,8.0,67,0.00,,,0.48,VWS V14.01,2013-07-21 20:31:00,
2013-07-21 15:36:00,79.2,66.4,29.81,ESE,123,4.0,7.0,65,0.00,,,0.48,VWS V14.01,2013-07-21 20:36:00,
2013-07-21 15:41:00,79.2,66.4,29.81,ESE,112,5.0,9.0,65,0.00,,,0.48,VWS V14.01,2013-07-21 20:41:00,
2013-07-21 15:46:00,79.0,65.8,29.81,ESE,120,4.0,9.0,64,0.00,,,0.48,VWS V14.01,2013-07-21 20:46:00,
2013-07-21 15:51:00,78.9,66.6,29.81,ESE,114,2.0,9.0,66,0.00,,,0.48,VWS V14.01,2013-07-21 20:51:00,
2013-07-21 15:56:00,79.0,67.1,29.80,SE,137,3.0,9.0,67,0.00,,,0.48,VWS V14.01,2013-07-21 20:56:00,
2013-07-21 16:01:00,79.2,68.2,29.80,ESE,108,1.0,9.0,69,0.00,,,0.48,VWS V14.01,2013-07-21 21:01:00,
2013-07-21 16:06:00,79.3,67.4,29.80,SSE,160,2.0,7.0,67,0.00,,,0.48,VWS V14.01,2013-07-21 21:06:00,
2013-07-21 16:11:00,79.3,67.4,29.80,SE,129,4.0,11.0,67,0.00,,,0.48,VWS V14.01,2013-07-21 21:11:00,
2013-07-21 16:17:00,79.3,67.0,29.80,SSE,166,8.0,11.0,66,0.00,,,0.48,VWS V14.01,2013-07-21 21:17:00,
2013-07-21 16:22:00,79.4,67.5,29.80,ESE,116,2.0,11.0,67,0.00,,,0.48,VWS V14.01,2013-07-21 21:22:00,
2013-07-21 16:27:00,79.3,67.4,29.80,West,265,3.0,11.0,67,0.00,,,0.48,VWS V14.01,2013-07-21 21:27:00,
2013-07-21 16:32:00,79.3,69.1,29.80,ESE,110,7.0,11.0,71,0.00,,,0.48,VWS V14.01,2013-07-21 21:32:00,
2013-07-21 16:37:00,79.3,68.3,29.79,ESE,104,4.0,10.0,69,0.00,,,0.48,VWS V14.01,2013-07-21 21:37:00,
2013-07-21 16:42:00,79.3,68.7,29.79,ESE,102,3.0,10.0,70,0.00,,,0.48,VWS V14.01,2013-07-21 21:42:00,
2013-07-21 16:47:00,79.0,68.0,29.79,SSE,155,3.0,10.0,69,0.00,,,0.48,VWS V14.01,2013-07-21 21:47:00,
2013-07-21 16:52:00,78.7,67.7,29.79,ESE,108,0.0,10.0,69,0.00,,,0.48,VWS V14.01,2013-07-21 21:52:00,
2013-07-21 16:57:00,78.8,68.6,29.79,SSW,198,0.0,10.0,71,0.00,,,0.48,VWS V14.01,2013-07-21 21:57:00,
2013-07-21 17:02:00,79.0,68.0,29.79,South,172,1.0,10.0,69,0.00,,,0.48,VWS V14.01,2013-07-21 22:02:00,
2013-07-21 17:08:00,79.1,68.1,29.79,SSE,168,0.0,3.0,69,0.00,,,0.48,VWS V14.01,2013-07-21 22:08:00,
2013-07-21 17:13:00,79.1,68.1,29.79,South,179,0.0,7.0,69,0.00,,,0.48,VWS V14.01,2013-07-21 22:13:00,
2013-07-21 17:18:00,79.0,68.4,29.79,ESE,104,2.0,7.0,70,0.00,,,0.48,VWS V14.01,2013-07-21 22:18:00,
2013-07-21 17:23:00,78.9,67.9,29.79,SW,220,0.0,7.0,69,0.00,,,0.48,VWS V14.01,2013-07-21 22:23:00,
2013-07-21 17:28:00,78.8,67.4,29.79,SE,131,1.0,7.0,68,0.00,,,0.48,VWS V14.01,2013-07-21 22:28:00,
2013-07-21 17:33:00,78.7,67.7,29.79,ESE,102,1.0,8.0,69,0.00,,,0.48,VWS V14.01,2013-07-21 22:33:00,
2013-07-21 17:38:00,78.5,67.5,29.79,SE,135,2.0,7.0,69,0.00,,,0.48,VWS V14.01,2013-07-21 22:38:00,
2013-07-21 17:43:00,78.5,67.5,29.79,SE,134,3.0,7.0,69,0.00,,,0.48,VWS V14.01,2013-07-21 22:43:00,
2013-07-21 17:48:00,78.5,67.5,29.79,SSE,147,3.0,8.0,69,0.00,,,0.48,VWS V14.01,2013-07-21 22:48:00,
2013-07-21 17:53:00,78.4,67.0,29.79,NNE,14,0.0,8.0,68,0.00,,,0.48,VWS V14.01,2013-07-21 22:53:00,
2013-07-21 17:58:00,78.3,66.9,29.78,SE,131,0.0,8.0,68,0.00,,,0.48,VWS V14.01,2013-07-21 22:58:00,
2013-07-21 18:03:00,78.2,66.8,29.78,SE,126,5.0,8.0,68,0.00,,,0.48,VWS V14.01,2013-07-21 23:03:00,
2013-07-21 18:09:00,78.2,67.6,29.78,SE,134,2.0,4.0,70,0.00,,,0.48,VWS V14.01,2013-07-21 23:09:00,
2013-07-21 18:14:00,78.3,68.1,29.78,SE,145,1.0,4.0,71,0.00,,,0.48,VWS V14.01,2013-07-21 23:14:00,
2013-07-21 18:19:00,78.2,67.6,29.78,East,97,2.0,7.0,70,0.00,,,0.48,VWS V14.01,2013-07-21 23:19:00,
2013-07-21 18:24:00,78.2,68.0,29.78,SE,142,0.0,7.0,71,0.00,,,0.48,VWS V14.01,2013-07-21 23:24:00,
2013-07-21 18:29:00,78.1,67.9,29.78,ESE,114,0.0,7.0,71,0.00,,,0.48,VWS V14.01,2013-07-21 23:29:00,
2013-07-21 18:34:00,78.1,67.9,29.78,SE,132,2.0,7.0,71,0.00,,,0.48,VWS V14.01,2013-07-21 23:34:00,
2013-07-21 18:39:00,78.0,68.7,29.78,ESE,115,1.0,4.0,73,0.00,,,0.48,VWS V14.01,2013-07-21 23:39:00,
2013-07-21 18:44:00,77.9,68.6,29.78,ESE,112,1.0,5.0,73,0.00,,,0.48,VWS V14.01,2013-07-21 23:44:00,
2013-07-21 18:49:00,77.8,68.1,29.78,ESE,113,0.0,5.0,72,0.00,,,0.48,VWS V14.01,2013-07-21 23:49:00,
2013-07-21 18:54:00,77.7,68.4,29.78,East,101,3.0,5.0,73,0.00,,,0.48,VWS V14.01,2013-07-21 23:54:00,
2013-07-21 18:59:00,77.6,67.9,29.77,SE,127,2.0,5.0,72,0.00,,,0.48,VWS V14.01,2013-07-21 23:59:00,
2013-07-21 19:00:00,77.6,67.9,29.77,SE,127,0.0,5.0,72,0.00,,,0.48,VWS V14.01,2013-07-22 00:00:00,
2013-07-21 19:05:00,77.5,68.2,29.77,SE,135,3.0,3.0,73,0.00,,,0.48,VWS V14.01,2013-07-22 00:05:00,
2013-07-21 19:10:00,77.4,68.1,29.77,ESE,102,1.0,5.0,73,0.00,,,0.48,VWS V14.01,2013-07-22 00:10:00,
2013-07-21 19:15:00,77.3,68.0,29.77,ESE,123,2.0,7.0,73,0.00,,,0.48,VWS V14.01,2013-07-22 00:15:00,
2013-07-21 19:20:00,77.2,67.9,29.77,ESE,120,1.0,7.0,73,0.00,,,0.48,VWS V14.01,2013-07-22 00:20:00,
2013-07-21 19:26:00,77.2,67.9,29.77,ESE,118,2.0,7.0,73,0.00,,,0.48,VWS V14.01,2013-07-22 00:26:00,
2013-07-21 19:31:00,77.1,68.2,29.77,ESE,113,2.0,7.0,74,0.00,,,0.48,VWS V14.01,2013-07-22 00:31:00,
2013-07-21 19:36:00,77.0,68.1,29.76,ESE,112,2.0,7.0,74,0.00,,,0.48,VWS V14.01,2013-07-22 00:36:00,
2013-07-21 19:41:00,76.9,68.0,29.76,ESE,110,1.0,7.0,74,0.00,,,0.48,VWS V14.01,2013-07-22 00:41:00,
2013-07-21 19:46:00,76.8,68.3,29.76,ESE,119,2.0,9.0,75,0.00,,,0.48,VWS V14.01,2013-07-22 00:46:00,
2013-07-21 19:51:00,76.7,68.2,29.75,SE,139,3.0,9.0,75,0.00,,,0.48,VWS V14.01,2013-07-22 00:51:00,
2013-07-21 19:56:00,76.6,68.5,29.75,SE,129,2.0,9.0,76,0.00,,,0.48,VWS V14.01,2013-07-22 00:56:00,
2013-07-21 20:01:00,76.4,68.3,29.76,SE,127,4.0,9.0,76,0.00,,,0.48,VWS V14.01,2013-07-22 01:01:00,
2013-07-21 20:06:00,76.3,68.2,29.76,East,83,0.0,8.0,76,0.00,,,0.48,VWS V14.01,2013-07-22 01:06:00,
2013-07-21 20:11:00,76.1,68.4,29.76,South,169,1.0,8.0,77,0.00,,,0.48,VWS V14.01,2013-07-22 01:11:00,
2013-07-21 20:17:00,76.0,68.3,29.76,SE,145,7.0,8.0,77,0.00,,,0.48,VWS V14.01,2013-07-22 01:17:00,
2013-07-21 20:22:00,75.8,68.5,29.76,SE,142,1.0,8.0,78,0.00,,,0.48,VWS V14.01,2013-07-22 01:22:00,
2013-07-21 20:27:00,75.7,68.4,29.76,SE,134,3.0,8.0,78,0.00,,,0.48,VWS V14.01,2013-07-22 01:27:00,
2013-07-21 20:32:00,75.6,68.3,29.77,ESE,108,1.0,8.0,78,0.00,,,0.48,VWS V14.01,2013-07-22 01:32:00,
2013-07-21 20:37:00,75.5,68.5,29.77,SE,125,2.0,5.0,79,0.00,,,0.48,VWS V14.01,2013-07-22 01:37:00,
2013-07-21 20:42:00,75.5,68.5,29.78,West,268,1.0,5.0,79,0.00,,,0.48,VWS V14.01,2013-07-22 01:42:00,
2013-07-21 20:47:00,75.5,68.5,29.78,ESE,119,5.0,5.0,79,0.00,,,0.48,VWS V14.01,2013-07-22 01:47:00,
2013-07-21 20:52:00,75.3,68.3,29.78,SE,137,1.0,8.0,79,0.00,,,0.48,VWS V14.01,2013-07-22 01:52:00,
2013-07-21 20:57:00,75.3,68.3,29.78,NE,53,1.0,8.0,79,0.00,,,0.48,VWS V14.01,2013-07-22 01:57:00,
2013-07-21 21:03:00,75.1,68.5,29.78,ESE,122,3.0,8.0,80,0.00,,,0.48,VWS V14.01,2013-07-22 02:03:00,
2013-07-21 21:08:00,74.9,68.3,29.78,SE,129,2.0,4.0,80,0.00,,,0.48,VWS V14.01,2013-07-22 02:08:00,
2013-07-21 21:13:00,74.8,68.6,29.78,SSW,203,1.0,5.0,81,0.00,,,0.48,VWS V14.01,2013-07-22 02:13:00,
2013-07-21 21:18:00,74.6,68.4,29.78,East,99,5.0,7.0,81,0.00,,,0.48,VWS V14.01,2013-07-22 02:18:00,
2013-07-21 21:23:00,74.5,68.3,29.78,SSE,152,4.0,7.0,81,0.00,,,0.48,VWS V14.01,2013-07-22 02:23:00,
2013-07-21 21:28:00,74.3,68.1,29.78,East,101,1.0,7.0,81,0.00,,,0.48,VWS V14.01,2013-07-22 02:28:00,
2013-07-21 21:33:00,74.1,67.9,29.78,ESE,108,2.0,7.0,81,0.00,,,0.48,VWS V14.01,2013-07-22 02:33:00,
2013-07-21 21:38:00,73.9,68.1,29.78,SE,124,4.0,6.0,82,0.00,,,0.48,VWS V14.01,2013-07-22 02:38:00,
2013-07-21 21:43:00,73.8,68.0,29.78,SE,129,3.0,6.0,82,0.00,,,0.48,VWS V14.01,2013-07-22 02:43:00,
2013-07-21 21:49:00,73.6,67.8,29.78,East,89,5.0,6.0,82,0.00,,,0.48,VWS V14.01,2013-07-22 02:49:00,
2013-07-21 21:54:00,73.5,67.7,29.78,ESE,114,1.0,8.0,82,0.00,,,0.48,VWS V14.01,2013-07-22 02:54:00,
2013-07-21 21:59:00,73.3,67.5,29.78,South,171,1.0,8.0,82,0.00,,,0.48,VWS V14.01,2013-07-22 02:59:00,
2013-07-21 22:04:00,73.2,67.4,29.78,ESE,102,2.0,8.0,82,0.00,,,0.48,VWS V14.01,2013-07-22 03:04:00,
2013-07-21 22:09:00,73.0,67.5,29.78,SSE,162,1.0,5.0,83,0.00,,,0.48,VWS V14.01,2013-07-22 03:09:00,
2013-07-21 22:14:00,72.9,67.4,29.78,ESE,102,1.0,5.0,83,0.00,,,0.48,VWS V14.01,2013-07-22 03:14:00,
2013-07-21 22:19:00,72.7,67.2,29.78,SSE,156,1.0,5.0,83,0.00,,,0.48,VWS V14.01,2013-07-22 03:19:00,
2013-07-21 22:24:00,72.6,67.5,29.78,SSE,158,3.0,5.0,84,0.00,,,0.48,VWS V14.01,2013-07-22 03:24:00,
2013-07-21 22:29:00,72.4,67.3,29.78,SE,135,2.0,5.0,84,0.00,,,0.48,VWS V14.01,2013-07-22 03:29:00,
2013-07-21 22:35:00,72.3,67.2,29.78,ESE,104,4.0,4.0,84,0.00,,,0.48,VWS V14.01,2013-07-22 03:35:00,
2013-07-21 22:40:00,72.2,67.1,29.78,ESE,120,1.0,4.0,84,0.00,,,0.48,VWS V14.01,2013-07-22 03:40:00,
2013-07-21 22:45:00,72.1,67.0,29.78,SSE,152,1.0,4.0,84,0.00,,,0.48,VWS V14.01,2013-07-22 03:45:00,
2013-07-21 22:50:00,71.9,67.2,29.78,South,186,1.0,6.0,85,0.00,,,0.48,VWS V14.01,2013-07-22 03:50:00,
2013-07-21 22:55:00,71.8,67.1,29.78,East,95,0.0,7.0,85,0.00,,,0.48,VWS V14.01,2013-07-22 03:55:00,
2013-07-21 23:00:00,71.7,66.9,29.78,South,183,2.0,7.0,85,0.00,,,0.48,VWS V14.01,2013-07-22 04:00:00,
2013-07-21 23:01:00,71.7,66.9,29.78,East,89,2.0,7.0,85,0.00,,,0.48,VWS V14.01,2013-07-22 04:01:00,
2013-07-21 23:02:00,71.7,66.9,29.78,ESE,114,1.0,7.0,85,0.00,,,0.48,VWS V14.01,2013-07-22 04:02:00,
2013-07-21 23:04:00,71.6,66.9,29.77,ESE,112,2.0,7.0,85,0.00,,,0.48,VWS V14.01,2013-07-22 04:04:00,
2013-07-21 23:09:00,71.5,66.8,29.77,SE,145,3.0,7.0,85,0.00,,,0.48,VWS V14.01,2013-07-22 04:09:00,
2013-07-21 23:14:00,71.3,66.6,29.77,SSW,210,0.0,7.0,85,0.00,,,0.48,VWS V14.01,2013-07-22 04:14:00,
2013-07-21 23:19:00,71.3,66.6,29.77,SE,136,4.0,7.0,85,0.00,,,0.48,VWS V14.01,2013-07-22 04:19:00,
2013-07-21 23:24:00,71.2,66.5,29.77,SE,132,6.0,8.0,85,0.00,,,0.48,VWS V14.01,2013-07-22 04:24:00,
2013-07-21 23:29:00,71.2,66.5,29.77,SSE,149,2.0,8.0,85,0.00,,,0.48,VWS V14.01,2013-07-22 04:29:00,
2013-07-21 23:34:00,71.1,66.4,29.77,ESE,102,0.0,2.0,85,0.00,,,0.48,VWS V14.01,2013-07-22 04:34:00,
2013-07-21 23:39:00,71.0,66.6,29.76,SSE,167,3.0,4.0,86,0.00,,,0.48,VWS V14.01,2013-07-22 04:39:00,
2013-07-21 23:44:00,70.9,66.5,29.76,ESE,108,4.0,4.0,86,0.00,,,0.48,VWS V14.01,2013-07-22 04:44:00,
2013-07-21 23:50:00,70.8,66.4,29.76,SE,145,3.0,7.0,86,0.00,,,0.48,VWS V14.01,2013-07-22 04:50:00,
2013-07-21 23:55:00,70.7,66.3,29.75,ESE,112,1.0,7.0,86,0.00,,,0.48,VWS V14.01,2013-07-22 04:55:00,